Location: De Greiden
(52.9496°N, 5.9137°E)
Time: 01:51:54
(UTC+00:00)

Cosmos 923 Rocket - Pass Details

Date: 24 January 2021
Orbit: 758 x 785 km, 74.0° (Epoch: 26 February)

Event Time Altitude Azimuth Distance (km) Brightness Sun altitude
Rises 17:25:48 0° 333° (NNW) 3,290 7.4 -11.8°
Reaches altitude 10° 17:28:12 10° 333° (NNW) 2,356 6.7 -12.1°
Maximum altitude 17:33:35 86° 246° (WSW) 792 4.1 -12.9°
Drops below altitude 10° 17:38:54 10° 158° (SSE) 2,328 6.4 -13.7°
Sets 17:41:15 0° 158° (SSE) 3,248 7.2 -14.0°
